Regional Weather Roundup
Issued by NWS

Home | Current Version | Previous Version | Text Only | Print | Product List | Glossary Off
Versions: 1 2 3 4 5 6 7 8 9 10 11 12 13 14 15 16 17 18 19 20 21 22 23 24 25 26 27 28 29 30 31 32 33 34 35 36 37 38 39 40 41 42 43 44 45 46 47 48 49 50

000
ASUS43 KOAX 270310
RWRNE

WEATHER ROUNDUP FOR NEBRASKA
NATIONAL WEATHER SERVICE OMAHA NE
900 PM CST WED NOV 26 2014

NOTES: SATELLITE DATA IS BEING USED TO AUGMENT CLOUD COVER ABOVE
       12000 FEET.
       "FAIR" INDICATES FEW OR NO CLOUDS BELOW 12,000 FEET WITH NO
       SIGNIFICANT WEATHER AND/OR OBSTRUCTIONS TO VISIBILITY.

  * THESE STATIONS DO NOT REPORT WEATHER SUCH AS RAIN...SNOW OR FOG.

NEZ001>004-019>022-054>056-270400-
NEBRASKA PANHANDLE

CITY           SKY/WX    TMP DP  RH WIND       PRES   REMARKS
SCOTTSBLUFF    FOG       19  17  92 E8        30.27S VSB 3/4 WCI   9
ALLIANCE       MOCLDY    25  24  96 S6        30.27F WCI  18
CHADRON        CLOUDY   N/A N/A N/A CALM      30.28R
KIMBALL        PTCLDY    20  20  97 S7        30.24R WCI  12
SIDNEY         FOG       19  17  92 S6        30.29R VSB 3/4 WCI  11
$$

NEZ057>060-069>072-079>082-270400-
SOUTHWEST NEBRASKA

CITY           SKY/WX    TMP DP  RH WIND       PRES   REMARKS
NORTH PLATTE   CLOUDY    26  19  74 CALM      30.35S
IMPERIAL       CLOUDY    31  28  89 CALM      30.33S
LEXINGTON      PTCLDY    26  19  74 CALM      30.37S
MCCOOK         CLOUDY    32  21  64 NE6       30.38R WCI  26
OGALLALA       CLOUDY    30  30  98 W3        30.33S
$$

NEZ005>010-023>029-035>040-094-270400-
NORTH CENTRAL NEBRASKA

CITY           SKY/WX    TMP DP  RH WIND       PRES   REMARKS
VALENTINE      CLOUDY    23  18  81 E5        30.35R WCI  17
AINSWORTH      PTCLDY    20  17  87 CALM      30.36S
BROKEN BOW     CLOUDY    24  17  74 CALM      30.38R
O`NEILL        MOCLDY    17  12  79 N3        30.40R
ORD            MOCLDY    20  14  77 NW5       30.39R WCI  13
THEDFORD       MOCLDY    24  19  81 S5        30.34R WCI  18
$$

NEZ041-046>049-061>064-073>077-083>087-270400-
SOUTH CENTRAL NEBRASKA

CITY           SKY/WX    TMP DP  RH WIND       PRES   REMARKS
GRAND ISLAND   PTCLDY    23  17  78 N6        30.42R WCI  16
AURORA         PTCLDY    24  16  72 N13       30.40R WCI  12
HASTINGS       PTCLDY    25  17  72 N7        30.39R WCI  17
HEBRON         PTCLDY    22  16  76 W5        30.42R WCI  16
HOLDREGE       PTCLDY    23  16  73 N3        30.38R
KEARNEY *      PTCLDY    25  16  68 CALM      30.40R
YORK           PTCLDY    23  16  74 N9        30.40S WCI  13
$$

NEZ011>018-030>034-042>045-270400-
NORTHEAST NEBRASKA

CITY           SKY/WX    TMP DP  RH WIND       PRES   REMARKS
NORFOLK        CLEAR     17  11  77 NW9       30.40R WCI   6
ALBION         MOCLDY    21  10  63 N7        30.39S WCI  12
BLAIR          CLOUDY    24  19  80 N10       30.39R WCI  13
COLUMBUS *     MOCLDY    19  10  68 N8        30.42S WCI   9
FREMONT        CLOUDY    23  19  83 NW9       30.42R WCI  13
TEKAMAH        CLOUDY    23  17  78 N14       30.42R WCI  11
WAYNE          PTCLDY    15   9  80 N5        30.43R WCI   7
$$

NEZ050>053-065>068-078-088>093-270400-
SOUTHEAST NEBRASKA

CITY           SKY/WX    TMP DP  RH WIND       PRES   REMARKS
LINCOLN        MOCLDY    22  15  75 N14       30.43R WCI   9
OMAHA EPPLEY   CLOUDY    24  18  77 N12       30.42R WCI  13
BEATRICE       MOCLDY    24  19  81 N9        30.40S WCI  14
FALLS CITY     CLOUDY    26  20  77 NW15G23   30.38R WCI  14
NEBRASKA CITY  CLOUDY    24  17  74 N12G21    30.39R WCI  13
PLATTSMOUTH    CLOUDY    23  18  80 NW14G23   30.39R WCI  11
$$

NEZ044-045-051>053-067-270400-
OMAHA AREA

CITY           SKY/WX    TMP DP  RH WIND       PRES   REMARKS
OMAHA EPPLEY   CLOUDY    24  18  77 N12       30.42R WCI  13
BLAIR          CLOUDY    24  19  80 N10       30.39R WCI  13
FREMONT        CLOUDY    23  19  83 NW9       30.42R WCI  13
MILLARD        CLOUDY    25  19  78 N9        30.41S WCI  15
OFFUTT AFB     CLOUDY    23  18  80 N14       30.40R WCI  11
PLATTSMOUTH    CLOUDY    23  18  80 NW14G23   30.39R WCI  11
WAHOO          CLOUDY    23  17  79 N12       30.41S WCI  11
$$


USA.gov is the U.S. government's official web portal to all federal, state and local government web resources and services.